Location: Lac de la Montagne noire
(46.1952°N, 74.2701°W)
Time: 05:10:07
(UTC-04:00)

N. Korean satellite - Visible Passes

Search period start: 20 March 2019 00:00
Search period end: 30 March 2019 00:00
Orbit: 455 x 510 km, 97.2° (Epoch: 19 March)

Date Brightness Start Highest point End Pass type
(mag) Time Alt. Az. Time Alt. Az. Time Alt. Az.
20 Mar 9.9 06:14:21 10° NE 06:16:35 16° E 06:18:49 10° SE visible
24 Mar 10.0 06:08:45 10° ENE 06:10:41 14° E 06:12:38 10° SE visible
28 Mar 10.2 06:03:11 10° ENE 06:04:44 12° E 06:06:16 10° ESE visible
